This is the latest recevied weather packets stored in our database for station/object F4THN-13. If no packets are shown the sender has not sent any weather packets the latest 10 day(s).
| Time | Temp. | Humidity | Pressure | Rain* | Wind** | Luminosity | Snow |
|---|---|---|---|---|---|---|---|
| 1777430798 | 11.67° C | 86% | 1014.7 hPa | 0 mm | - | - | - |
| 1777429297 | 11.11° C | 86% | 1014.7 hPa | 0 mm | - | - | - |
| 1777427797 | 11.67° C | 85% | 1014.7 hPa | 0 mm | - | - | - |
| 1777426297 | 11.67° C | 85% | 1014.7 hPa | 0 mm | - | - | - |
| 1777424797 | 11.67° C | 84% | 1014.8 hPa | 0 mm | - | - | - |
| 1777423297 | 11.67° C | 84% | 1014.9 hPa | 0 mm | - | - | - |
| 1777421797 | 11.67° C | 84% | 1014.7 hPa | 0 mm | - | - | - |
| 1777420296 | 12.22° C | 83% | 1014.9 hPa | 0 mm | - | - | - |
| 1777418796 | 12.78° C | 83% | 1014.6 hPa | 0 mm | - | - | - |
| 1777417296 | 13.33° C | 83% | 1014.7 hPa | 0 mm | - | - | - |
| 1777415796 | 13.33° C | 83% | 1014.6 hPa | 0 mm | - | - | - |
| 1777414296 | 13.33° C | 82% | 1014.6 hPa | 0 mm | - | - | - |
| 1777412796 | 13.89° C | 81% | 1014.7 hPa | 0 mm | - | - | - |
| 1777411296 | 14.44° C | 81% | 1014.7 hPa | 0 mm | - | - | - |
| 1777409795 | 14.44° C | 81% | 1014.9 hPa | 0 mm | - | - | - |
| 1777408296 | 15° C | 81% | 1015.1 hPa | 0 mm | - | - | - |
| 1777406795 | 15° C | 80% | 1015 hPa | 0 mm | - | - | - |
| 1777405295 | 15.56° C | 80% | 1015 hPa | 1.02 mm | - | - | - |
| 1777403795 | 15.56° C | 80% | 1014.9 hPa | 1.52 mm | - | - | - |
| 1777402295 | 15.56° C | 80% | 1015.1 hPa | 1.52 mm | - | - | - |
| 1777400794 | 15.56° C | 80% | 1015.1 hPa | 1.52 mm | - | - | - |
| 1777399294 | 16.11° C | 77% | 1015 hPa | 2.03 mm | - | - | - |
| 1777397794 | 16.11° C | 78% | 1014.9 hPa | 3.05 mm | - | - | - |
| 1777396294 | 16.67° C | 77% | 1014.8 hPa | 3.56 mm | - | - | - |
| 1777394794 | 16.67° C | 76% | 1014.7 hPa | 2.03 mm | - | - | - |
* Rain latest hour (hover to see other rain measurements)
** Current wind speed in m/s (hover to see current wind gust speed)